Location: *
(33.8649°S, 62.1526°E)
Time: 03:21:16
(UTC+00:00)

Lacrosse 5 - Pass Details

Date: 17 January 2021
Orbit: 715 x 724 km, 57.0° (Epoch: 26 February)

Event Time Altitude Azimuth Distance (km) Brightness Sun altitude
Exits shadow 20:49:31 32° 180° (S) 1,250 3.5 -34.4°
Drops below altitude 10° 20:52:40 10° 154° (SSE) 2,239 5.2 -34.2°
Sets 20:55:12 0° 147° (SSE) 3,166 6.1 -34.1°
